DateTimeUTC,F1_A11,F1_S11,BsB_S11,BsG_S11,BsR_S11,BbsB_S11,BbsG_S11,BbsR_S11,BaB_A11,BaG_A11,BaR_A11,Tu_S11,T_S11,Uu_S11,U_S11,P_S11,T1_A11
2021-03-11T13:00:00Z,00000200,21000000,,,,,,,0000.69,0000.12,0000.57,17.0,24.5,,00.0,0637.5,30.9
2021-03-11T13:01:00Z,00000200,21000000,,,,,,,-000.00,0000.27,-000.10,17.0,24.5,,00.0,0637.5,31.0
2021-03-11T13:02:00Z,00000200,21000000,,,,,,,-000.50,-000.22,-000.09,17.1,24.6,,00.0,0637.5,31.0
2021-03-11T13:03:00Z,00000200,61000000,,,,,,,0000.66,0000.71,0000.28,17.1,24.6,,00.0,0637.5,31.0
2021-03-11T13:04:00Z,00000200,41000000,0002.24,0001.41,0000.52,0000.19,0000.15,0000.24,0000.81,0000.68,0000.61,17.4,24.5,,00.0,0638.4,30.9
2021-03-11T13:05:00Z,00000200,01000000,0002.39,0000.93,0000.81,0000.49,0000.32,0000.01,0000.52,-000.00,0000.25,17.5,24.4,,00.0,0638.4,30.9
2021-03-11T13:06:00Z,00000200,01000000,0001.62,0001.07,0000.33,0000.19,0000.24,0000.27,0000.67,0001.19,0000.62,17.5,24.4,,00.0,0638.4,30.9
2021-03-11T13:07:00Z,00000200,01000000,0001.94,0001.19,0000.62,-000.02,0000.08,0000.52,0000.72,0000.23,0000.32,17.4,24.4,,00.0,0638.5,30.9
2021-03-11T13:08:00Z,00000200,01000000,0001.96,0001.03,0000.55,-000.20,0000.22,0000.10,0000.69,0000.81,0000.64,17.4,24.4,,00.0,0638.5,30.9
2021-03-11T13:09:00Z,00000200,01000000,0002.40,0001.36,0000.60,0000.17,0000.23,0000.36,0000.88,0000.66,0000.13,17.4,24.4,,00.0,0638.5,30.9
2021-03-11T13:10:00Z,00000200,01000000,0001.47,0000.88,0000.55,0000.10,0000.24,0000.35,0000.39,0000.17,0000.58,17.3,24.4,,00.0,0638.5,30.9
2021-03-11T13:11:00Z,00000200,01000000,0001.74,0001.20,0000.95,0000.26,0000.08,0000.17,0000.81,0000.80,0000.40,17.3,24.3,,00.0,0638.5,30.9
2021-03-11T13:12:00Z,00000200,01000000,0001.91,0001.41,0000.57,0000.02,0000.14,0000.44,0001.00,0000.56,0000.43,17.3,24.3,,00.0,0638.5,30.9
2021-03-11T13:13:00Z,00000200,01000000,0002.00,0001.10,0000.89,0000.13,0000.10,0000.39,0000.58,0000.99,0000.60,17.3,24.3,,00.0,0638.5,30.9
2021-03-11T13:14:00Z,00000200,01000000,0001.96,0001.37,0000.87,0000.62,0000.23,0000.59,0001.19,0001.06,0000.66,17.3,24.3,,00.0,0638.4,30.9
2021-03-11T13:15:00Z,00000200,01000000,0001.75,0001.33,0000.79,0000.43,0000.20,0000.10,0000.76,0000.53,0000.46,17.4,24.4,,00.0,0638.5,31.0
2021-03-11T13:16:00Z,00000200,01000000,0002.52,0001.14,0000.69,0000.24,0000.45,0000.09,0000.78,0000.76,0000.69,17.5,24.4,,00.0,0638.5,31.0
2021-03-11T13:17:00Z,00000200,01000000,0002.71,0001.36,0000.49,0000.23,0000.16,0000.22,0000.51,0000.51,0000.60,17.6,24.4,,00.0,0638.4,31.0
2021-03-11T13:18:00Z,00000200,01000000,0002.04,0001.22,0000.56,-000.06,0000.27,0000.59,0000.47,0000.60,0000.11,17.6,24.4,,00.0,0638.4,31.0
2021-03-11T13:19:00Z,00000200,01000000,0001.72,0001.28,0000.61,0000.41,0000.25,0000.23,0001.36,0001.10,0000.74,17.6,24.5,,00.0,0638.4,31.0
2021-03-11T13:20:00Z,00000200,01000000,0002.47,0001.34,0000.77,0000.30,0000.14,0000.03,0000.45,0000.31,0000.12,17.6,24.5,,00.0,0638.4,31.0
2021-03-11T13:21:00Z,00000200,01000000,0001.88,0001.27,0000.58,0000.59,0000.37,0000.38,0000.31,0000.31,0000.30,17.6,24.5,,00.0,0638.4,31.0
2021-03-11T13:22:00Z,00000200,01000000,0001.72,0001.20,0000.74,0000.07,0000.20,0000.24,0000.57,0000.56,0000.41,17.6,24.4,,00.0,0638.4,31.0
2021-03-11T13:23:00Z,00000200,01000000,0001.79,0001.14,0000.72,-000.11,0000.29,0000.42,0000.39,0000.43,0000.23,17.5,24.4,,00.0,0638.4,30.9
2021-03-11T13:24:00Z,00000200,01000000,0001.84,0001.20,0000.89,0000.24,0000.30,0000.33,0000.97,0000.48,0000.62,17.5,24.4,,00.0,0638.5,30.9
2021-03-11T13:25:00Z,00000200,01000000,0002.16,0001.16,0000.50,-000.31,0000.25,0000.03,0000.02,0000.54,0000.43,17.5,24.4,,00.0,0638.5,31.0
2021-03-11T13:26:00Z,00000200,01000000,0002.47,0001.06,0000.34,-000.14,0000.15,0000.22,0000.81,0000.21,0000.31,17.5,24.4,,00.0,0638.5,30.9
2021-03-11T13:27:00Z,00000200,01000000,0001.93,0001.28,0000.67,0000.65,0000.14,0000.35,0000.33,0000.59,0000.42,17.4,24.4,,00.0,0638.4,30.9
2021-03-11T13:28:00Z,00000200,01000000,0001.60,0001.52,0000.43,-000.11,0000.21,0000.32,0000.89,0000.82,0000.42,17.4,24.4,,00.0,0638.4,30.9
2021-03-11T13:29:00Z,00000200,01000000,0001.84,0001.34,0000.58,0000.31,0000.03,0000.23,0000.23,0000.41,0000.11,17.5,24.4,,00.0,0638.4,30.9
2021-03-11T13:30:00Z,00000200,01000000,0001.69,0001.15,0000.73,0000.21,0000.53,0000.31,0000.83,0000.21,0000.42,17.6,24.4,,00.0,0638.4,31.0
2021-03-11T13:31:00Z,00000200,01000000,0001.47,0001.19,0000.47,0000.20,0000.29,0000.47,0000.26,0000.82,0000.41,17.6,24.5,,00.0,0638.4,31.0
2021-03-11T13:32:00Z,00000200,01000000,0002.53,0001.18,0000.28,0000.20,0000.11,0000.23,0000.80,0000.57,0000.40,17.6,24.5,,00.0,0638.4,31.0
2021-03-11T13:33:00Z,00000200,01000000,0002.55,0001.36,0000.65,0000.53,0000.55,0000.33,0000.24,0000.33,0000.02,17.7,24.5,,00.0,0638.4,31.0
2021-03-11T13:34:00Z,00000200,01000000,0002.07,0001.22,0000.49,0000.28,0000.35,0000.26,0001.00,0000.55,0000.95,17.6,24.5,,00.0,0638.4,31.0
2021-03-11T13:35:00Z,00000200,01000000,0002.26,0000.98,0000.53,0000.21,0000.43,0000.04,0000.76,0000.70,0000.05,17.6,24.4,,00.0,0638.4,30.9
2021-03-11T13:36:00Z,00000200,01000000,0001.52,0001.32,0000.86,0000.70,0000.13,0000.35,0000.48,0000.33,0000.82,17.6,24.5,,00.0,0638.4,30.9
2021-03-11T13:37:00Z,00000200,01000000,0002.06,0001.02,0000.49,-000.01,0000.09,0000.18,0000.69,0000.51,0000.28,17.5,24.4,,00.0,0638.4,30.9
2021-03-11T13:38:00Z,00000200,01000000,0002.00,0001.19,0000.91,0000.17,0000.56,0000.53,0000.55,0000.66,0000.02,17.5,24.4,,00.0,0638.4,30.9
2021-03-11T13:39:00Z,00000200,01000000,0001.47,0001.05,0000.72,0000.32,0000.18,0000.29,0000.55,0000.82,0000.87,17.5,24.4,,00.0,0638.4,30.9
2021-03-11T13:40:00Z,00000200,01000000,0001.80,0001.02,0000.74,0000.34,0000.21,0000.41,0000.84,0000.41,0000.06,17.5,24.4,,00.0,0638.4,30.9
2021-03-11T13:41:00Z,00000200,01000000,0002.08,0001.03,0000.49,0000.18,0000.21,0000.27,0000.48,0000.57,0000.66,17.4,24.4,,00.0,0638.4,30.9
2021-03-11T13:42:00Z,00000200,01000000,0001.97,0001.08,0000.94,0000.51,0000.24,0000.45,0000.61,-000.10,0000.18,17.4,24.4,,00.0,0638.4,30.9
2021-03-11T13:43:00Z,00000200,01000000,0002.00,0001.27,0000.48,0000.15,0000.31,0000.31,0000.41,0001.13,0000.57,17.4,24.4,,00.0,0638.4,30.9
2021-03-11T13:44:00Z,00000200,01000000,0002.15,0001.19,0000.74,0000.33,0000.25,0000.19,0000.77,0000.73,0000.30,17.5,24.4,,00.0,0638.4,31.0
2021-03-11T13:45:00Z,00000200,01000000,0002.04,0001.21,0000.62,0000.54,0000.20,0000.41,0000.64,0000.41,0000.78,17.6,24.4,,00.0,0638.4,31.0
2021-03-11T13:46:00Z,00000200,01000000,0001.92,0001.59,0000.98,0000.48,0000.16,0000.09,0000.62,0000.20,0000.21,17.6,24.4,,00.0,0638.4,31.0
2021-03-11T13:47:00Z,00000200,01000000,0001.76,0001.19,0000.69,0000.34,0000.26,0000.28,0000.44,0000.68,0000.13,17.7,24.4,,00.0,0638.4,31.0
2021-03-11T13:48:00Z,00000200,01000000,0001.98,0001.50,0000.41,0000.15,0000.29,0000.27,0000.88,0000.60,0000.53,17.7,24.5,,00.0,0638.4,31.0
2021-03-11T13:49:00Z,00000200,01000000,0002.18,0001.03,0000.53,0000.18,0000.19,0000.20,0000.61,0000.49,0000.34,17.6,24.5,,00.0,0638.4,31.0
2021-03-11T13:50:00Z,00000200,01000000,0001.96,0001.13,0000.58,-000.01,0000.18,0000.28,0000.62,0000.56,0000.26,17.6,24.4,,00.0,0638.4,30.9
2021-03-11T13:51:00Z,00000200,01000000,0002.62,0001.33,0000.70,-000.09,0000.21,0000.18,0000.41,0000.50,0000.52,17.6,24.4,,00.0,0638.4,30.9
2021-03-11T13:52:00Z,00000200,01000000,0002.24,0001.09,0000.66,0000.03,0000.17,0000.30,0000.52,0000.65,0000.45,17.5,24.4,,00.0,0638.3,30.9
2021-03-11T13:53:00Z,00000200,01000000,0003.06,0002.54,0001.44,0000.29,0000.58,0000.42,0006.25,0005.67,0004.50,17.5,24.4,,00.0,0638.4,30.9
2021-03-11T13:54:00Z,00000200,01000000,0003.31,0002.69,0002.20,0000.94,0000.52,0000.58,0014.01,0013.35,0010.45,17.4,24.4,,00.0,0638.4,30.9
2021-03-11T13:55:00Z,00000200,01000000,0003.42,0002.18,0001.38,0000.63,0000.30,0000.43,0001.51,0001.61,0001.06,17.4,24.4,,00.0,0638.4,30.9
2021-03-11T13:56:00Z,00000200,01000000,0002.83,0002.07,0001.51,0000.46,0000.37,0000.64,0002.21,0001.97,0001.86,17.4,24.3,,00.0,0638.4,30.9
2021-03-11T13:57:00Z,00000200,41000000,,,,,,,-003.01,-003.33,-002.13,17.4,24.3,,00.0,0638.4,30.9
2021-03-11T13:58:00Z,00000200,61000000,,,,,,,0002.90,0003.08,0002.07,17.0,24.4,,00.0,0637.5,30.9
2021-03-11T13:59:00Z,00000200,21000000,,,,,,,-000.91,-000.59,-000.50,17.0,24.5,,00.0,0637.4,30.9
